• MPC Preparation (Info)

  • MPEC 2019-P100 : 2019 PQ2

    The following Minor Planet Electronic Circular may be linked-to from your own Web pages, but must not otherwise be redistributed electronically.

    A form allowing access to any MPEC is at the bottom of this page.


    Read MPEC 2019-P99 Read MPEC 2019-P101


    M.P.E.C. 2019-P100                                Issued 2019 August 14, 12:22 UT  
    
         The Minor Planet Electronic Circulars contain information on unusual
             minor planets and routine data on comets.  They are published
        on behalf of Division F of the International Astronomical Union by the
              Minor Planet Center, Smithsonian Astrophysical Observatory,
                              Cambridge, MA 02138, U.S.A.
    
                 Prepared using the Tamkin Foundation Computer Network
    
                                  MPC@CFA.HARVARD.EDU
                URL https://www.minorplanetcenter.net/    ISSN 1523-6714
    
                                    2019 PQ2                                 
    
    
    Observations:
         K19P02Q  C2019 08 11.62247100 08 26.103+29 52 44.42         21.4 GVEP100F51
         K19P02Q  C2019 08 12.52564600 15 14.512+31 28 08.63         20.2 GVEP100F51
         K19P02Q* C2019 08 13.53011 00 23 26.174+33 18 21.67         20.0 iUEP100F51
         K19P02Q  C2019 08 13.53965 00 23 30.589+33 19 25.99         20.7 iUEP100F51
         K19P02Q  C2019 08 13.54937 00 23 35.107+33 20 31.32         20.0 iUEP100F51
         K19P02Q KC2019 08 14.32934500 30 33.76 +34 48 23.3          20.3 VuEP100H21
         K19P02Q KC2019 08 14.33660800 30 37.50 +34 49 14.1          20.3 VuEP100H21
         K19P02Q KC2019 08 14.34242100 30 40.47 +34 49 54.4          20.5 VuEP100H21
    
    Observer details:
    F51 Pan-STARRS 1, Haleakala.  Observers J. Bulger, K. Chambers, T. Lowe,
        E. Magnier, A. Schultz, M. Willman.  Measurers S. Chastel, M. Huber,
        Y. Ramanjooloo, R. Wainscoat, R. Weryk, K. Chambers, T. de Boer, L. Denneau,
        J. Fairlamb, H. Flewelling, C.-C. Lin, E. Magnier.  
        1.8-m Ritchey-Chretien + CCD.
    H21 Astronomical Research Observatory, Westfield.  Observer R. Holmes.  
        Measurers S. Foglia, L. Buzzi, T. Linder, R. Holmes.  
        0.76-m f/3.0 astrograph + CCD.
    
    Orbital elements:
    2019 PQ2                                                 Earth MOID = 0.0360 AU
    Epoch 2019 Apr. 27.0 TT = JDT 2458600.5                 MPC
    M 191.45950              (2000.0)            P               Q
    n   0.88573818     Peri.  185.86133     +0.48533901     -0.87380986
    a   1.0738224      Node   235.10766     +0.80365884     +0.45937987
    e   0.2165162      Incl.    2.09884     +0.34435233     +0.15945679
    P   1.11           H   23.9           G   0.15           U   7
    Residuals in seconds of arc
    190811 F51  0.2+  0.1-    190813 F51  0.2-  0.0     190814 H21  0.1+  0.0
    190812 F51  0.0   0.1+    190813 F51  0.1-  0.2-    190814 H21  0.1-  0.2-
    190813 F51  0.0   0.1+    190814 H21  0.1+  0.2-
    
    Ephemeris:
    2019 PQ2                 a,e,i = 1.07, 0.22, 2                   q = 0.8413
    Date    TT    R. A. (2000) Decl.     Delta      r    Elong.  Phase     V
    2019 07 15    22 35 13.2 +02 55 24   0.1999  1.1541   129.6    42.8    22.4
    ...
    2019 07 30    23 10 39.5 +13 32 51   0.1318  1.1045   129.9    44.9    21.4
    ...
    2019 08 07    23 41 11.1 +22 42 19   0.1017  1.0762   125.3    50.3    21.0
    ...
    2019 08 13    00 18 59.0 +32 19 13   0.08334 1.0545   117.6    58.4    20.7
    2019 08 14    00 27 31.4 +34 10 50   0.08076 1.0509   115.9    60.2    20.7
    2019 08 15    00 36 57.4 +36 06 17   0.07835 1.0472   114.0    62.1    20.7
    ...
    2019 08 21    02 00 05.7 +47 59 58   0.06806 1.0251    99.4    76.8    20.8
    ...
    2019 08 29    05 10 50.3 +54 20 21   0.06834 0.9957    75.9   100.3    21.7
    ...
    2019 09 13    08 31 12.9 +35 54 30   0.1060  0.9425    50.5   124.5    24.1
    
    A. U. Tomatic                (C) Copyright 2019 MPC           M.P.E.C. 2019-P100
    


    Read MPEC 2019-P99 Read MPEC 2019-P101


    MPEC number:

    Enter an MPEC number in one of the following forms:

    • 1997-B01 (the full form)
    • J97B01 (the packed version of the full form)
    • B01 (the abbreviated form)